Terminal Aerodrome Forecast
Issued by NWS

Home | Current Version | Previous Version | Text Only | Print | Product List | Glossary On
Versions: 1 2 3 4 5 6 7 8 9 10 11 12 13 14 15 16 17
000
FTUS43 KOAX 152300
TAFBFF
TAF
KBFF 152330Z 1600/1624 13012KT P6SM SKC
     FM160600 07006KT P6SM SKC
     FM161500 32008KT P6SM SKC=

USA.gov is the U.S. government's official web portal to all federal, state and local government web resources and services.